OneWeb SL0162

operational
NORAD ID: 48056 Int'l Des: 2021-025 Owner: ONEWEBN Country: UK Constellation: oneweb
LEOCIRCULARPOLARONEWEB_TYPE

关于 OneWeb SL0162

正在加载描述...

实时位置

正在加载3D地球...

即将过境

高度历史

Altitude vs Time

uPlot chart will show altitude changes over time

两行轨道根数

1 48056U 21025Q 25304.14002172 -.00000094 00000-0 -29189-3 0 9991
2 48056 87.9040 5.7372 0001770 95.0284 265.1048 13.13469376223477
Epoch: Oct 31, 2025 • Age: 14 hours

当前状态

高度 1235.5 km
速度 7.24 km/s
星下点 -64.10°S, 111.29°W
发射日期 Mar 25, 2021
运行时间 4.6 years
类型 internet

技术详情

分类 Payload
质量 148.00 kg
干质量 140.00 kg
总质量 148.00 kg
长度 1.30 m
直径 1.00 m
跨度 5.00 m
形状 Trapezoid+2 pan
制造商 ONEWUS
平台类型 ARROW
阶段状态 In Orbit
所有者/国家 ONEWEBN/UK

大型星座

Loading constellations...